"Sample Date","Sample Time","Sample Value","Units","Flow Rate","Sample Interval","Number Channels","Micron Size 0","Counts/Channel 0","Micron Size 1","Counts/Channel 1","Micron Size 2","Counts/Channel 2","Micron Size 3","Counts/Channel 3","Micron Size 4","Counts/Channel 4","Micron Size 5","Counts/Channel 5","Micron Size 6","Counts/Channel 6","Micron Size 7","Counts/Channel 7","Micron Size 8","Counts/Channel 8","Micron Size 9","Counts/Channel 9","Micron Size 10","Counts/Channel 10","Micron Size 11","Counts/Channel 11","Micron Size 12","Counts/Channel 12","Micron Size 13","Counts/Channel 13","Micron Size 14","Counts/Channel 14","Micron Size 15","Counts/Channel 15","Micron Size 16","Counts/Channel 16","Micron Size 17","Counts/Channel 17","Micron Size 18","Counts/Channel 18","Micron Size 19","Counts/Channel 19","Micron Size 20","Counts/Channel 20","Micron Size 21","Counts/Channel 21","Micron Size 22","Counts/Channel 22","Micron Size 23","Counts/Channel 23","Micron Size 24","Counts/Channel 24","Micron Size 25","Counts/Channel 25","Micron Size 26","Counts/Channel 26","Micron Size 27","Counts/Channel 27","Micron Size 28","Counts/Channel 28","Micron Size 29","Counts/Channel 29","Micron Size 30","Counts/Channel 30","Micron Size 31","Counts/Channel 31"
"04/04/08","20:00:04",28503.000,"cc",28258.484,6.00,6,0.100,25993.000,0.200,1174.000,0.300,475.000,0.500,636.000,1.000,225.000,5.000,0
"04/04/08","20:00:10",28422.000,"cc",28336.147,6.00,6,0.100,26124.000,0.200,1109.000,0.300,430.000,0.500,557.000,1.000,202.000,5.000,0
"04/04/08","20:00:16",28160.000,"cc",28347.998,6.00,6,0.100,25902.000,0.200,1042.000,0.300,454.000,0.500,560.000,1.000,202.000,5.000,0
"04/04/08","20:00:22",28308.000,"cc",28304.324,6.00,6,0.100,26086.000,0.200,1038.000,0.300,443.000,0.500,530.000,1.000,211.000,5.000,0
"04/04/08","20:00:28",28080.000,"cc",28285.156,6.00,6,0.100,25824.000,0.200,1086.000,0.300,397.000,0.500,578.000,1.000,195.000,5.000,0
"04/04/08","20:00:34",28269.000,"cc",28333.477,6.00,6,0.100,26091.000,0.200,1044.000,0.300,432.000,0.500,521.000,1.000,181.000,5.000,0
"04/04/08","20:00:40",28366.000,"cc",28346.537,6.00,6,0.100,26103.000,0.200,1044.000,0.300,460.000,0.500,563.000,1.000,196.000,5.000,0
"04/04/08","20:00:46",28223.000,"cc",28317.744,6.00,6,0.100,25956.000,0.200,1093.000,0.300,443.000,0.500,514.000,1.000,217.000,5.000,0
"04/04/08","20:00:52",28123.000,"cc",28330.184,6.00,6,0.100,25850.000,0.200,1112.000,0.300,433.000,0.500,535.000,1.000,193.000,5.000,0
"04/04/08","20:00:58",28504.000,"cc",28279.400,6.00,6,0.100,26153.000,0.200,1082.000,0.300,492.000,0.500,546.000,1.000,231.000,5.000,0
"04/04/08","20:01:04",27774.000,"cc",28246.871,6.00,6,0.100,25568.000,0.200,1058.000,0.300,418.000,0.500,512.000,1.000,218.000,5.000,0
"04/04/08","20:01:10",28187.000,"cc",28331.785,6.00,6,0.100,26004.000,0.200,1030.000,0.300,437.000,0.500,535.000,1.000,181.000,5.000,0
"04/04/08","20:01:16",28287.000,"cc",28333.365,6.00,6,0.100,25995.000,0.200,1077.000,0.300,435.000,0.500,590.000,1.000,190.000,5.000,0
"04/04/08","20:01:22",28246.000,"cc",28304.701,6.00,6,0.100,25954.000,0.200,1045.000,0.300,468.000,0.500,557.000,1.000,222.000,5.000,0
"04/04/08","20:01:28",28683.000,"cc",28326.961,6.00,6,0.100,26442.000,0.200,1073.000,0.300,428.000,0.500,538.000,1.000,202.000,5.000,0
"04/04/08","20:01:34",28357.000,"cc",28357.725,6.00,6,0.100,26089.000,0.200,1112.000,0.300,416.000,0.500,530.000,1.000,210.000,5.000,0
"04/04/08","20:01:40",28333.000,"cc",28306.566,6.00,6,0.100,26117.000,0.200,1012.000,0.300,440.000,0.500,577.000,1.000,187.000,5.000,0
"04/04/08","20:01:46",28392.000,"cc",28345.213,6.00,6,0.100,26203.000,0.200,1018.000,0.300,423.000,0.500,558.000,1.000,190.000,5.000,0
"04/04/08","20:01:52",28239.000,"cc",28262.494,6.00,6,0.100,26024.000,0.200,1054.000,0.300,433.000,0.500,550.000,1.000,178.000,5.000,0
"04/04/08","20:01:58",28402.000,"cc",28332.711,6.00,6,0.100,26247.000,0.200,993.000,0.300,425.000,0.500,549.000,1.000,188.000,5.000,0
"04/04/08","20:02:04",28066.000,"cc",28274.854,6.00,6,0.100,25918.000,0.200,1080.000,0.300,423.000,0.500,466.000,1.000,179.000,5.000,0
"04/04/08","20:02:10",27936.000,"cc",28337.397,6.00,6,0.100,25873.000,0.200,983.000,0.300,396.000,0.500,490.000,1.000,194.000,5.000,0
"04/04/08","20:02:16",27794.000,"cc",28338.188,6.00,6,0.100,25653.000,0.200,978.000,0.300,435.000,0.500,525.000,1.000,203.000,5.000,0
"04/04/08","20:02:22",28008.000,"cc",28323.729,6.00,6,0.100,25839.000,0.200,1022.000,0.300,429.000,0.500,515.000,1.000,203.000,5.000,0
"04/04/08","20:02:28",28025.000,"cc",28318.951,6.00,6,0.100,25908.000,0.200,1014.000,0.300,410.000,0.500,507.000,1.000,186.000,5.000,0
"04/04/08","20:02:34",28284.000,"cc",28230.270,6.00,6,0.100,26104.000,0.200,1041.000,0.300,459.000,0.500,503.000,1.000,177.000,5.000,0
"04/04/08","20:02:40",27699.000,"cc",28323.789,6.00,6,0.100,25525.000,0.200,1046.000,0.300,415.000,0.500,541.000,1.000,172.000,5.000,0
"04/04/08","20:02:46",28247.000,"cc",28400.752,6.00,6,0.100,25884.000,0.200,1141.000,0.300,469.000,0.500,551.000,1.000,202.000,5.000,0
"04/04/08","20:02:52",28329.000,"cc",28304.791,6.00,6,0.100,26064.000,0.200,1098.000,0.300,462.000,0.500,501.000,1.000,204.000,5.000,0
"04/04/08","20:02:58",28640.000,"cc",28299.469,6.00,6,0.100,26280.000,0.200,1146.000,0.300,468.000,0.500,523.000,1.000,223.000,5.000,0
"04/04/08","20:03:04",27962.000,"cc",28284.174,6.00,6,0.100,25876.000,0.200,981.000,0.300,420.000,0.500,479.000,1.000,206.000,5.000,0
"04/04/08","20:03:10",28202.000,"cc",28310.660,6.00,6,0.100,25999.000,0.200,1073.000,0.300,418.000,0.500,514.000,1.000,198.000,5.000,0
"04/04/08","20:03:16",28121.000,"cc",28318.133,6.00,6,0.100,25868.000,0.200,1090.000,0.300,461.000,0.500,513.000,1.000,189.000,5.000,0
"04/04/08","20:03:22",28319.000,"cc",28322.035,6.00,6,0.100,26058.000,0.200,1055.000,0.300,419.000,0.500,582.000,1.000,205.000,5.000,0
"04/04/08","20:03:28",28303.000,"cc",28361.717,6.00,6,0.100,26058.000,0.200,1089.000,0.300,453.000,0.500,518.000,1.000,185.000,5.000,0
"04/04/08","20:03:34",28699.000,"cc",28287.945,6.00,6,0.100,26337.000,0.200,1129.000,0.300,463.000,0.500,565.000,1.000,205.000,5.000,0
"04/04/08","20:03:40",28430.000,"cc",28276.609,6.00,6,0.100,26177.000,0.200,1032.000,0.300,473.000,0.500,548.000,1.000,200.000,5.000,0
"04/04/08","20:03:46",28689.000,"cc",28347.037,6.00,6,0.100,26312.000,0.200,1151.000,0.300,431.000,0.500,574.000,1.000,221.000,5.000,0
"04/04/08","20:03:52",28287.000,"cc",28369.529,6.00,6,0.100,26027.000,0.200,1083.000,0.300,424.000,0.500,536.000,1.000,217.000,5.000,0
"04/04/08","20:03:58",28636.000,"cc",28294.881,6.00,6,0.100,26359.000,0.200,1085.000,0.300,433.000,0.500,565.000,1.000,194.000,5.000,0
"04/04/08","20:04:04",28806.000,"cc",28295.967,6.00,6,0.100,26327.000,0.200,1221.000,0.300,459.000,0.500,599.000,1.000,200.000,5.000,0
"04/04/08","20:04:10",28821.000,"cc",28355.621,6.00,6,0.100,26456.000,0.200,1113.000,0.300,489.000,0.500,583.000,1.000,180.000,5.000,0
"04/04/08","20:04:16",28569.000,"cc",28344.541,6.00,6,0.100,26210.000,0.200,1104.000,0.300,462.000,0.500,571.000,1.000,222.000,5.000,0
"04/04/08","20:04:22",28496.000,"cc",28280.293,6.00,6,0.100,26134.000,0.200,1134.000,0.300,481.000,0.500,537.000,1.000,210.000,5.000,0
"04/04/08","20:04:28",28911.000,"cc",28336.065,6.00,6,0.100,26510.000,0.200,1148.000,0.300,457.000,0.500,576.000,1.000,220.000,5.000,0
"04/04/08","20:04:34",28913.000,"cc",28348.467,6.00,6,0.100,26463.000,0.200,1180.000,0.300,456.000,0.500,595.000,1.000,219.000,5.000,0
"04/04/08","20:04:40",28891.000,"cc",28299.022,6.00,6,0.100,26449.000,0.200,1201.000,0.300,463.000,0.500,552.000,1.000,226.000,5.000,0
"04/04/08","20:04:46",28764.000,"cc",28361.598,6.00,6,0.100,26376.000,0.200,1130.000,0.300,448.000,0.500,604.000,1.000,206.000,5.000,0
"04/04/08","20:04:52",29409.000,"cc",28236.445,6.00,6,0.100,26834.000,0.200,1208.000,0.300,500.000,0.500,645.000,1.000,222.000,5.000,0
"04/04/08","20:04:58",28671.000,"cc",28328.981,6.00,6,0.100,26249.000,0.200,1198.000,0.300,461.000,0.500,546.000,1.000,217.000,5.000,0
"04/04/08","20:05:04",28871.000,"cc",28310.613,6.00,6,0.100,26304.000,0.200,1265.000,0.300,507.000,0.500,571.000,1.000,224.000,5.000,0
"04/04/08","20:05:10",28962.000,"cc",28344.049,6.00,6,0.100,26492.000,0.200,1199.000,0.300,473.000,0.500,579.000,1.000,219.000,5.000,0
"04/04/08","20:05:16",28557.000,"cc",28259.195,6.00,6,0.100,26103.000,0.200,1132.000,0.300,520.000,0.500,584.000,1.000,218.000,5.000,0
"04/04/08","20:05:22",28642.000,"cc",28335.648,6.00,6,0.100,26242.000,0.200,1152.000,0.300,460.000,0.500,570.000,1.000,218.000,5.000,0
"04/04/08","20:05:28",28923.000,"cc",28277.631,6.00,6,0.100,26461.000,0.200,1215.000,0.300,459.000,0.500,564.000,1.000,224.000,5.000,0
"04/04/08","20:05:34",28674.000,"cc",28339.945,6.00,6,0.100,26287.000,0.200,1176.000,0.300,449.000,0.500,564.000,1.000,198.000,5.000,0
"04/04/08","20:05:40",28448.000,"cc",28387.791,6.00,6,0.100,26035.000,0.200,1207.000,0.300,442.000,0.500,556.000,1.000,208.000,5.000,0
"04/04/08","20:05:46",29177.000,"cc",28268.309,6.00,6,0.100,26785.000,0.200,1167.000,0.300,422.000,0.500,570.000,1.000,233.000,5.000,0
"04/04/08","20:05:52",28889.000,"cc",28280.084,6.00,6,0.100,26363.000,0.200,1187.000,0.300,506.000,0.500,615.000,1.000,218.000,5.000,0
"04/04/08","20:05:58",29363.000,"cc",28346.332,6.00,6,0.100,26854.000,0.200,1194.000,0.300,500.000,0.500,584.000,1.000,231.000,5.000,0
"04/04/08","20:06:04",28964.000,"cc",28355.102,6.00,6,0.100,26452.000,0.200,1189.000,0.300,488.000,0.500,606.000,1.000,229.000,5.000,0
"04/04/08","20:06:10",28845.000,"cc",28291.490,6.00,6,0.100,26257.000,0.200,1248.000,0.300,508.000,0.500,612.000,1.000,220.000,5.000,0
"04/04/08","20:06:16",28764.000,"cc",28277.096,6.00,6,0.100,26350.000,0.200,1107.000,0.300,489.000,0.500,599.000,1.000,219.000,5.000,0
"04/04/08","20:06:22",28750.000,"cc",28323.193,6.00,6,0.100,26267.000,0.200,1225.000,0.300,466.000,0.500,584.000,1.000,208.000,5.000,0
"04/04/08","20:06:28",28954.000,"cc",28302.234,6.00,6,0.100,26584.000,0.200,1137.000,0.300,450.000,0.500,572.000,1.000,211.000,5.000,0
"04/04/08","20:06:34",29280.000,"cc",28354.303,6.00,6,0.100,26657.000,0.200,1253.000,0.300,495.000,0.500,620.000,1.000,255.000,5.000,0
"04/04/08","20:06:40",29002.000,"cc",28322.428,6.00,6,0.100,26456.000,0.200,1243.000,0.300,470.000,0.500,608.000,1.000,225.000,5.000,0
"04/04/08","20:06:46",28734.000,"cc",28353.309,6.00,6,0.100,26285.000,0.200,1161.000,0.300,473.000,0.500,626.000,1.000,189.000,5.000,0
"04/04/08","20:06:52",28695.000,"cc",28267.117,6.00,6,0.100,26204.000,0.200,1231.000,0.300,489.000,0.500,559.000,1.000,212.000,5.000,0
"04/04/08","20:06:58",28718.000,"cc",28369.951,6.00,6,0.100,26222.000,0.200,1164.000,0.300,493.000,0.500,620.000,1.000,219.000,5.000,0
"04/04/08","20:07:04",29145.000,"cc",28344.951,6.00,6,0.100,26680.000,0.200,1211.000,0.300,475.000,0.500,594.000,1.000,185.000,5.000,0
"04/04/08","20:07:10",28985.000,"cc",28312.779,6.00,6,0.100,26531.000,0.200,1161.000,0.300,467.000,0.500,602.000,1.000,224.000,5.000,0
"04/04/08","20:07:16",28975.000,"cc",28307.066,6.00,6,0.100,26585.000,0.200,1138.000,0.300,450.000,0.500,589.000,1.000,213.000,5.000,0
"04/04/08","20:07:22",28692.000,"cc",28305.697,6.00,6,0.100,26214.000,0.200,1210.000,0.300,492.000,0.500,570.000,1.000,206.000,5.000,0
"04/04/08","20:07:28",28459.000,"cc",28293.252,6.00,6,0.100,25990.000,0.200,1202.000,0.300,476.000,0.500,541.000,1.000,250.000,5.000,0
"04/04/08","20:07:34",29314.000,"cc",28358.457,6.00,6,0.100,26716.000,0.200,1231.000,0.300,553.000,0.500,606.000,1.000,208.000,5.000,0
"04/04/08","20:07:40",29158.000,"cc",28290.477,6.00,6,0.100,26671.000,0.200,1242.000,0.300,484.000,0.500,547.000,1.000,214.000,5.000,0
"04/04/08","20:07:46",29340.000,"cc",28334.375,6.00,6,0.100,26825.000,0.200,1221.000,0.300,497.000,0.500,564.000,1.000,233.000,5.000,0
"04/04/08","20:07:52",29165.000,"cc",28324.010,6.00,6,0.100,26683.000,0.200,1185.000,0.300,456.000,0.500,617.000,1.000,224.000,5.000,0
"04/04/08","20:07:58",29260.000,"cc",28278.268,6.00,6,0.100,26794.000,0.200,1211.000,0.300,498.000,0.500,545.000,1.000,212.000,5.000,0
"04/04/08","20:08:04",28994.000,"cc",28288.066,6.00,6,0.100,26419.000,0.200,1248.000,0.300,473.000,0.500,632.000,1.000,222.000,5.000,0
"04/04/08","20:08:10",29191.000,"cc",28303.793,6.00,6,0.100,26702.000,0.200,1152.000,0.300,483.000,0.500,610.000,1.000,244.000,5.000,0
"04/04/08","20:08:16",28956.000,"cc",28316.010,6.00,6,0.100,26577.000,0.200,1133.000,0.300,484.000,0.500,573.000,1.000,189.000,5.000,0
"04/04/08","20:08:22",28980.000,"cc",28395.732,6.00,6,0.100,26383.000,0.200,1232.000,0.300,523.000,0.500,618.000,1.000,224.000,5.000,0
"04/04/08","20:08:28",29049.000,"cc",28297.695,6.00,6,0.100,26440.000,0.200,1270.000,0.300,497.000,0.500,617.000,1.000,225.000,5.000,0
"04/04/08","20:08:34",29179.000,"cc",28306.482,6.00,6,0.100,26652.000,0.200,1239.000,0.300,481.000,0.500,607.000,1.000,200.000,5.000,0
"04/04/08","20:08:40",29333.000,"cc",28304.668,6.00,6,0.100,26696.000,0.200,1286.000,0.300,508.000,0.500,639.000,1.000,204.000,5.000,0
"04/04/08","20:08:46",28916.000,"cc",28366.705,6.00,6,0.100,26360.000,0.200,1202.000,0.300,485.000,0.500,670.000,1.000,199.000,5.000,0
"04/04/08","20:08:52",28901.000,"cc",28359.541,6.00,6,0.100,26452.000,0.200,1190.000,0.300,445.000,0.500,612.000,1.000,202.000,5.000,0
"04/04/08","20:08:58",28904.000,"cc",28259.486,6.00,6,0.100,26329.000,0.200,1216.000,0.300,491.000,0.500,627.000,1.000,241.000,5.000,0
"04/04/08","20:09:04",29111.000,"cc",28318.031,6.00,6,0.100,26543.000,0.200,1246.000,0.300,489.000,0.500,601.000,1.000,232.000,5.000,0
"04/04/08","20:09:10",29190.000,"cc",28333.971,6.00,6,0.100,26658.000,0.200,1284.000,0.300,430.000,0.500,594.000,1.000,224.000,5.000,0
"04/04/08","20:09:16",29032.000,"cc",28332.711,6.00,6,0.100,26547.000,0.200,1229.000,0.300,423.000,0.500,604.000,1.000,229.000,5.000,0
"04/04/08","20:09:22",28714.000,"cc",28270.133,6.00,6,0.100,26344.000,0.200,1215.000,0.300,389.000,0.500,557.000,1.000,209.000,5.000,0
"04/04/08","20:09:28",29189.000,"cc",28293.545,6.00,6,0.100,26646.000,0.200,1219.000,0.300,466.000,0.500,621.000,1.000,237.000,5.000,0
"04/04/08","20:09:34",29180.000,"cc",28366.229,6.00,6,0.100,26571.000,0.200,1274.000,0.300,506.000,0.500,594.000,1.000,235.000,5.000,0
"04/04/08","20:09:40",28855.000,"cc",28328.875,6.00,6,0.100,26357.000,0.200,1256.000,0.300,465.000,0.500,579.000,1.000,198.000,5.000,0
"04/04/08","20:09:46",28805.000,"cc",28315.121,6.00,6,0.100,26333.000,0.200,1197.000,0.300,470.000,0.500,576.000,1.000,229.000,5.000,0
"04/04/08","20:09:52",28605.000,"cc",28324.705,6.00,6,0.100,26132.000,0.200,1207.000,0.300,440.000,0.500,578.000,1.000,248.000,5.000,0
"04/04/08","20:09:58",28730.000,"cc",28308.231,6.00,6,0.100,26368.000,0.200,1152.000,0.300,440.000,0.500,564.000,1.000,206.000,5.000,0
"04/04/08","20:10:04",28579.000,"cc",28364.590,6.00,6,0.100,26166.000,0.200,1194.000,0.300,464.000,0.500,572.000,1.000,183.000,5.000,0
"04/04/08","20:10:10",28338.000,"cc",28297.422,6.00,6,0.100,26012.000,0.200,1138.000,0.300,451.000,0.500,530.000,1.000,207.000,5.000,0
"04/04/08","20:10:16",28744.000,"cc",28275.379,6.00,6,0.100,26357.000,0.200,1164.000,0.300,481.000,0.500,520.000,1.000,222.000,5.000,0
"04/04/08","20:10:22",28695.000,"cc",28414.615,6.00,6,0.100,26278.000,0.200,1182.000,0.300,468.000,0.500,552.000,1.000,215.000,5.000,0
"04/04/08","20:10:28",29147.000,"cc",28248.418,6.00,6,0.100,26622.000,0.200,1216.000,0.300,453.000,0.500,634.000,1.000,222.000,5.000,0
"04/04/08","20:10:34",28891.000,"cc",28274.215,6.00,6,0.100,26359.000,0.200,1233.000,0.300,470.000,0.500,600.000,1.000,229.000,5.000,0
"04/04/08","20:10:40",28378.000,"cc",28295.248,6.00,6,0.100,26027.000,0.200,1152.000,0.300,437.000,0.500,567.000,1.000,195.000,5.000,0
"04/04/08","20:10:46",28748.000,"cc",28308.270,6.00,6,0.100,26273.000,0.200,1192.000,0.300,492.000,0.500,575.000,1.000,216.000,5.000,0
"04/04/08","20:10:52",28526.000,"cc",28341.637,6.00,6,0.100,26130.000,0.200,1190.000,0.300,439.000,0.500,559.000,1.000,208.000,5.000,0
"04/04/08","20:10:58",28700.000,"cc",28322.354,6.00,6,0.100,26270.000,0.200,1189.000,0.300,472.000,0.500,539.000,1.000,230.000,5.000,0
"04/04/08","20:11:04",28861.000,"cc",28294.746,6.00,6,0.100,26425.000,0.200,1188.000,0.300,489.000,0.500,556.000,1.000,203.000,5.000,0
"04/04/08","20:11:10",28889.000,"cc",28330.141,6.00,6,0.100,26343.000,0.200,1204.000,0.300,481.000,0.500,623.000,1.000,238.000,5.000,0
"04/04/08","20:11:16",28779.000,"cc",28358.475,6.00,6,0.100,26179.000,0.200,1294.000,0.300,485.000,0.500,598.000,1.000,223.000,5.000,0
"04/04/08","20:11:22",28970.000,"cc",28320.719,6.00,6,0.100,26511.000,0.200,1212.000,0.300,455.000,0.500,585.000,1.000,207.000,5.000,0
"04/04/08","20:11:28",28694.000,"cc",28343.857,6.00,6,0.100,26207.000,0.200,1171.000,0.300,492.000,0.500,614.000,1.000,210.000,5.000,0
"04/04/08","20:11:34",28444.000,"cc",28289.506,6.00,6,0.100,25928.000,0.200,1213.000,0.300,482.000,0.500,576.000,1.000,245.000,5.000,0
"04/04/08","20:11:40",28724.000,"cc",28308.236,6.00,6,0.100,26245.000,0.200,1142.000,0.300,496.000,0.500,590.000,1.000,251.000,5.000,0
"04/04/08","20:11:46",28999.000,"cc",28317.273,6.00,6,0.100,26364.000,0.200,1253.000,0.300,531.000,0.500,619.000,1.000,232.000,5.000,0
"04/04/08","20:11:52",28933.000,"cc",28347.223,6.00,6,0.100,26471.000,0.200,1220.000,0.300,470.000,0.500,575.000,1.000,197.000,5.000,0
"04/04/08","20:11:58",28453.000,"cc",28366.063,6.00,6,0.100,26090.000,0.200,1120.000,0.300,481.000,0.500,545.000,1.000,217.000,5.000,0
"04/04/08","20:12:04",28209.000,"cc",28199.148,6.00,6,0.100,25854.000,0.200,1164.000,0.300,443.000,0.500,547.000,1.000,201.000,5.000,0
"04/04/08","20:12:10",28842.000,"cc",28330.346,6.00,6,0.100,26389.000,0.200,1195.000,0.300,472.000,0.500,569.000,1.000,217.000,5.000,0
"04/04/08","20:12:16",28539.000,"cc",28307.211,6.00,6,0.100,26005.000,0.200,1232.000,0.300,469.000,0.500,630.000,1.000,203.000,5.000,0
"04/04/08","20:12:22",28332.000,"cc",28336.801,6.00,6,0.100,26010.000,0.200,1189.000,0.300,436.000,0.500,510.000,1.000,187.000,5.000,0
"04/04/08","20:12:28",28566.000,"cc",28305.690,6.00,6,0.100,26110.000,0.200,1148.000,0.300,457.000,0.500,615.000,1.000,236.000,5.000,0
"04/04/08","20:12:34",29040.000,"cc",28361.658,6.00,6,0.100,26458.000,0.200,1212.000,0.300,514.000,0.500,620.000,1.000,236.000,5.000,0
"04/04/08","20:12:40",28541.000,"cc",28317.402,6.00,6,0.100,26073.000,0.200,1196.000,0.300,458.000,0.500,600.000,1.000,214.000,5.000,0
"04/04/08","20:12:46",28530.000,"cc",28328.158,6.00,6,0.100,26150.000,0.200,1174.000,0.300,455.000,0.500,522.000,1.000,229.000,5.000,0
"04/04/08","20:12:52",28072.000,"cc",28249.252,6.00,6,0.100,25814.000,0.200,1058.000,0.300,468.000,0.500,530.000,1.000,202.000,5.000,0
"04/04/08","20:12:58",28743.000,"cc",28316.811,6.00,6,0.100,26335.000,0.200,1206.000,0.300,454.000,0.500,551.000,1.000,197.000,5.000,0
"04/04/08","20:13:04",28437.000,"cc",28331.295,6.00,6,0.100,26026.000,0.200,1175.000,0.300,470.000,0.500,574.000,1.000,192.000,5.000,0
"04/04/08","20:13:10",28128.000,"cc",28332.715,6.00,6,0.100,25700.000,0.200,1154.000,0.300,449.000,0.500,613.000,1.000,212.000,5.000,0
"04/04/08","20:13:16",28756.000,"cc",28287.350,6.00,6,0.100,26208.000,0.200,1278.000,0.300,471.000,0.500,573.000,1.000,226.000,5.000,0
"04/04/08","20:13:22",28405.000,"cc",28321.979,6.00,6,0.100,25992.000,0.200,1162.000,0.300,501.000,0.500,545.000,1.000,205.000,5.000,0
"04/04/08","20:13:28",28644.000,"cc",28302.770,6.00,6,0.100,26272.000,0.200,1155.000,0.300,445.000,0.500,569.000,1.000,203.000,5.000,0
"04/04/08","20:13:34",28937.000,"cc",28264.988,6.00,6,0.100,26471.000,0.200,1174.000,0.300,489.000,0.500,595.000,1.000,208.000,5.000,0
"04/04/08","20:13:40",28744.000,"cc",28332.920,6.00,6,0.100,26369.000,0.200,1119.000,0.300,492.000,0.500,545.000,1.000,219.000,5.000,0
"04/04/08","20:13:46",28795.000,"cc",28408.383,6.00,6,0.100,26267.000,0.200,1196.000,0.300,500.000,0.500,605.000,1.000,227.000,5.000,0
"04/04/08","20:13:52",28574.000,"cc",28314.043,6.00,6,0.100,26141.000,0.200,1101.000,0.300,512.000,0.500,617.000,1.000,203.000,5.000,0
"04/04/08","20:13:58",28567.000,"cc",28326.889,6.00,6,0.100,26083.000,0.200,1186.000,0.300,460.000,0.500,611.000,1.000,227.000,5.000,0
"04/04/08","20:14:04",28919.000,"cc",28276.826,6.00,6,0.100,26534.000,0.200,1156.000,0.300,422.000,0.500,587.000,1.000,220.000,5.000,0
"04/04/08","20:14:10",28863.000,"cc",28313.191,6.00,6,0.100,26402.000,0.200,1202.000,0.300,447.000,0.500,587.000,1.000,225.000,5.000,0
"04/04/08","20:14:16",28941.000,"cc",28337.781,6.00,6,0.100,26429.000,0.200,1238.000,0.300,478.000,0.500,578.000,1.000,218.000,5.000,0
"04/04/08","20:14:22",28876.000,"cc",28346.334,6.00,6,0.100,26299.000,0.200,1248.000,0.300,496.000,0.500,595.000,1.000,238.000,5.000,0
"04/04/08","20:14:28",28733.000,"cc",28360.154,6.00,6,0.100,26288.000,0.200,1162.000,0.300,464.000,0.500,588.000,1.000,231.000,5.000,0
"04/04/08","20:14:34",29201.000,"cc",28313.055,6.00,6,0.100,26661.000,0.200,1245.000,0.300,475.000,0.500,584.000,1.000,236.000,5.000,0
"04/04/08","20:14:40",28883.000,"cc",28303.715,6.00,6,0.100,26294.000,0.200,1277.000,0.300,489.000,0.500,606.000,1.000,217.000,5.000,0
"04/04/08","20:14:46",29055.000,"cc",28292.748,6.00,6,0.100,26399.000,0.200,1296.000,0.300,476.000,0.500,653.000,1.000,231.000,5.000,0
"04/04/08","20:14:52",28899.000,"cc",28328.584,6.00,6,0.100,26383.000,0.200,1220.000,0.300,476.000,0.500,604.000,1.000,216.000,5.000,0
"04/04/08","20:14:58",29002.000,"cc",28299.746,6.00,6,0.100,26334.000,0.200,1302.000,0.300,461.000,0.500,645.000,1.000,260.000,5.000,0
"04/04/08","20:15:04",28754.000,"cc",28327.172,6.00,6,0.100,26196.000,0.200,1261.000,0.300,463.000,0.500,616.000,1.000,218.000,5.000,0
"04/04/08","20:15:10",28969.000,"cc",28313.141,6.00,6,0.100,26465.000,0.200,1209.000,0.300,445.000,0.500,590.000,1.000,260.000,5.000,0
"04/04/08","20:15:16",29099.000,"cc",28332.231,6.00,6,0.100,26489.000,0.200,1258.000,0.300,506.000,0.500,616.000,1.000,230.000,5.000,0
"04/04/08","20:15:22",28950.000,"cc",28320.291,6.00,6,0.100,26366.000,0.200,1281.000,0.300,468.000,0.500,591.000,1.000,244.000,5.000,0
"04/04/08","20:15:28",28869.000,"cc",28293.668,6.00,6,0.100,26263.000,0.200,1235.000,0.300,500.000,0.500,604.000,1.000,267.000,5.000,0
"04/04/08","20:15:34",29178.000,"cc",28317.881,6.00,6,0.100,26537.000,0.200,1255.000,0.300,527.000,0.500,623.000,1.000,236.000,5.000,0
"04/04/08","20:15:40",28828.000,"cc",28315.670,6.00,6,0.100,26211.000,0.200,1271.000,0.300,479.000,0.500,609.000,1.000,258.000,5.000,0
"04/04/08","20:15:46",29050.000,"cc",28344.916,6.00,6,0.100,26422.000,0.200,1258.000,0.300,500.000,0.500,627.000,1.000,243.000,5.000,0
"04/04/08","20:15:52",28895.000,"cc",28257.373,6.00,6,0.100,26335.000,0.200,1277.000,0.300,444.000,0.500,604.000,1.000,235.000,5.000,0
"04/04/08","20:15:58",28591.000,"cc",28329.008,6.00,6,0.100,26083.000,0.200,1186.000,0.300,515.000,0.500,571.000,1.000,236.000,5.000,0
"04/04/08","20:16:04",29108.000,"cc",28347.967,6.00,6,0.100,26400.000,0.200,1259.000,0.300,519.000,0.500,684.000,1.000,246.000,5.000,0
"04/04/08","20:16:10",29110.000,"cc",28267.467,6.00,6,0.100,26480.000,0.200,1272.000,0.300,503.000,0.500,595.000,1.000,260.000,5.000,0
"04/04/08","20:16:16",29206.000,"cc",28350.916,6.00,6,0.100,26552.000,0.200,1312.000,0.300,541.000,0.500,573.000,1.000,228.000,5.000,0
"04/04/08","20:16:22",29104.000,"cc",28375.098,6.00,6,0.100,26292.000,0.200,1356.000,0.300,549.000,0.500,671.000,1.000,236.000,5.000,0
"04/04/08","20:16:28",29537.000,"cc",28282.207,6.00,6,0.100,26715.000,0.200,1337.000,0.300,536.000,0.500,706.000,1.000,243.000,5.000,0
"04/04/08","20:16:34",28923.000,"cc",28304.342,6.00,6,0.100,26236.000,0.200,1249.000,0.300,528.000,0.500,658.000,1.000,252.000,5.000,0
"04/04/08","20:16:40",28934.000,"cc",28279.398,6.00,6,0.100,26370.000,0.200,1237.000,0.300,486.000,0.500,629.000,1.000,212.000,5.000,0